Simultaneous Nadir Overpasses (SNOs) Predictions

Prediction of SNOs between GOES-17 and METOP-C Satellite Orbit:

Table of predicted SNOs for the next 14.0 days since TLE Epoch: 3/30/2024
Index Date Time (GOES-17) GOES-17 Lat,Lon METOP-C Lat,Lon Distance(km) Time Diff (sec)
1 03/30/2024 16:36:27 -0.01,-104.69 0.52,-107.01 264.57 80
2 03/31/2024 16:18:26 -0.02,-104.68 -0.58,-102.01 304.50 80
3 04/02/2024 04:37:25 0.02,-104.67 -0.43,-106.60 219.93 80
4 04/03/2024 04:14:04 0.02,-104.67 0.68,-101.60 349.02 80
5 04/04/2024 16:32:55 -0.03,-104.67 0.32,-106.16 170.29 80
6 04/05/2024 16:14:55 -0.02,-104.67 -0.80,-101.16 399.11 80
7 04/07/2024 04:33:52 -0.02,-104.66 -0.25,-105.75 123.39 80
8 04/08/2024 04:10:32 -0.02,-104.66 0.87,-100.75 446.06 80
9 04/09/2024 16:29:22 0.02,-104.66 0.17,-105.30 73.18 80
10 04/10/2024 16:11:22 0.00,-104.66 -0.95,-100.31 496.11 80
11 04/12/2024 04:30:19 0.00,-104.66 -0.07,-104.89 27.62 80
